When you browse on this site, cookies collect data to enhance your experience and personalize the content and advertising you see.
Visit our Privacy Policy to learn more. By continuing to use the site, you agree to this use of cookies and data.
  • In France
  • List of Countries
  • For 7 days
  • Water Temperature
  • Satellite Maps
  • Weather Map
  • Weather Widgets
  • user-avatar
    Login

    Hourly Weather Weining

    Today, 20 July, Saturday

    Time Temperature Precipitation Wind Pressure Humidity
    00:00 +19°C° 1.5 mm 1 mps 585 mmHg 94%
    01:00 +19°C° 0 mm 1 mps 585 mmHg 95%
    02:00 +19°C° 2.2 mm 1 mps 584 mmHg 95%
    03:00 +19°C° 2.2 mm 1 mps 584 mmHg 96%
    04:00 +18°C° 2.2 mm 1 mps 584 mmHg 97%
    05:00 +18°C° 2.6 mm 1 mps 584 mmHg 97%
    06:00 +18°C° 2.6 mm 1 mps 585 mmHg 97%
    07:00 +19°C° 0 mm 1 mps 585 mmHg 97%
    08:00 +19°C° 1.3 mm 1 mps 585 mmHg 94%
    09:00 +18°C° 1.3 mm 0 mps 585 mmHg 92%
    10:00 +19°C° 1.3 mm 0 mps 585 mmHg 89%
    11:00 +22°C° 1 mm 1 mps 585 mmHg 86%
    12:00 +23°C° 1 mm 1 mps 585 mmHg 82%
    13:00 +23°C° 0 mm 1 mps 586 mmHg 83%
    14:00 +23°C° 2.5 mm 2 mps 585 mmHg 82%
    15:00 +23°C° 2.5 mm 2 mps 585 mmHg 82%
    16:00 +23°C° 2.5 mm 2 mps 584 mmHg 81%
    17:00 +21°C° 1.4 mm 2 mps 584 mmHg 85%
    18:00 +21°C° 1.4 mm 1 mps 584 mmHg 88%
    19:00 +20°C° 1.4 mm 1 mps 584 mmHg 91%
    20:00 +20°C° 0.8 mm 1 mps 584 mmHg 92%
    21:00 +19°C° 0.8 mm 1 mps 584 mmHg 93%
    22:00 +19°C° 0.8 mm 1 mps 584 mmHg 94%
    23:00 +17°C° 0.6 mm 0 mps 584 mmHg 94%

    Tomorrow, 21 July, Sunday

    Time Temperature Precipitation Wind Pressure Humidity
    00:00 +16°C° 0.6 mm 0 mps 584 mmHg 94%
    01:00 +16°C° 0.6 mm 0 mps 584 mmHg 95%
    02:00 +16°C° 0.1 mm 0 mps 584 mmHg 95%
    03:00 +18°C° 0.1 mm 1 mps 583 mmHg 95%
    04:00 +18°C° 0.1 mm 1 mps 583 mmHg 96%
    05:00 +18°C° 0 mm 1 mps 583 mmHg 95%
    06:00 +19°C° 0 mm 1 mps 584 mmHg 94%
    07:00 +19°C° 0 mm 1 mps 584 mmHg 93%
    08:00 +20°C° 0 mm 2 mps 585 mmHg 89%
    09:00 +21°C° 0 mm 2 mps 585 mmHg 84%
    10:00 +22°C° 0 mm 3 mps 585 mmHg 80%
    11:00 +24°C° 0 mm 3 mps 585 mmHg 76%
    12:00 +25°C° 0 mm 3 mps 585 mmHg 72%
    13:00 +26°C° 0 mm 4 mps 585 mmHg 69%
    14:00 +26°C° 0.2 mm 4 mps 585 mmHg 71%
    15:00 +26°C° 0.2 mm 4 mps 584 mmHg 73%
    16:00 +25°C° 0.2 mm 4 mps 583 mmHg 75%
    17:00 +23°C° 0.6 mm 4 mps 583 mmHg 81%
    18:00 +21°C° 0.6 mm 3 mps 582 mmHg 86%
    19:00 +20°C° 0.6 mm 2 mps 582 mmHg 92%
    20:00 +19°C° 0.2 mm 2 mps 582 mmHg 93%
    21:00 +19°C° 0.2 mm 3 mps 583 mmHg 93%
    22:00 +19°C° 0.2 mm 3 mps 583 mmHg 94%
    23:00 +19°C° 0 mm 3 mps 583 mmHg 95%

    Day after tomorrow, 22 July, Monday

    Time Temperature Precipitation Wind Pressure Humidity
    00:00 +18°C° 0 mm 3 mps 582 mmHg 95%
    01:00 +18°C° 0 mm 3 mps 582 mmHg 95%
    02:00 +18°C° 0.2 mm 2 mps 582 mmHg 96%
    03:00 +18°C° 0.2 mm 2 mps 582 mmHg 96%
    04:00 +17°C° 0.2 mm 2 mps 582 mmHg 97%
    05:00 +18°C° 0.3 mm 2 mps 582 mmHg 96%
    06:00 +18°C° 0.3 mm 2 mps 582 mmHg 95%
    07:00 +20°C° 0.3 mm 1 mps 583 mmHg 94%
    08:00 +20°C° 0 mm 1 mps 583 mmHg 91%
    09:00 +21°C° 0 mm 1 mps 584 mmHg 88%
    10:00 +22°C° 0 mm 1 mps 584 mmHg 85%
    11:00 +23°C° 0.1 mm 2 mps 584 mmHg 83%
    12:00 +23°C° 0.1 mm 2 mps 584 mmHg 81%
    13:00 +24°C° 0.1 mm 2 mps 583 mmHg 79%
    14:00 +24°C° 0.5 mm 2 mps 583 mmHg 78%
    15:00 +25°C° 0.5 mm 2 mps 583 mmHg 76%
    16:00 +25°C° 0.5 mm 2 mps 583 mmHg 75%
    17:00 +24°C° 2.8 mm 2 mps 583 mmHg 80%
    18:00 +21°C° 2.8 mm 2 mps 582 mmHg 86%
    19:00 +21°C° 2.8 mm 1 mps 582 mmHg 92%
    20:00 +19°C° 5.3 mm 2 mps 583 mmHg 94%
    21:00 +19°C° 5.3 mm 2 mps 583 mmHg 96%
    22:00 +18°C° 5.3 mm 2 mps 583 mmHg 97%
    23:00 +19°C° 7.5 mm 1 mps 583 mmHg 98%

    23 July, Tuesday

    Time Temperature Precipitation Wind Pressure Humidity
    00:00 +19°C° 7.5 mm 1 mps 582 mmHg 98%
    01:00 +19°C° 7.5 mm 1 mps 582 mmHg 98%
    02:00 +19°C° 4.1 mm 1 mps 582 mmHg 98%
    03:00 +18°C° 4.1 mm 1 mps 582 mmHg 98%
    04:00 +18°C° 4.1 mm 1 mps 582 mmHg 98%
    05:00 +19°C° 1.1 mm 1 mps 582 mmHg 97%
    06:00 +19°C° 1.1 mm 1 mps 583 mmHg 96%
    07:00 +19°C° 1.1 mm 1 mps 583 mmHg 95%
    08:00 +19°C° 0.4 mm 1 mps 583 mmHg 94%
    09:00 +19°C° 0.4 mm 1 mps 584 mmHg 93%
    10:00 +19°C° 0.4 mm 2 mps 584 mmHg 92%
    11:00 +19°C° 0.4 mm 2 mps 584 mmHg 92%
    12:00 +19°C° 0.4 mm 2 mps 583 mmHg 91%
    13:00 +19°C° 0.4 mm 2 mps 583 mmHg 91%
    14:00 +18°C° 0.2 mm 2 mps 583 mmHg 91%
    15:00 +18°C° 0.2 mm 2 mps 583 mmHg 91%
    16:00 +18°C° 0.2 mm 2 mps 582 mmHg 91%
    17:00 +18°C° 0.1 mm 2 mps 582 mmHg 92%
    18:00 +18°C° 0.1 mm 1 mps 582 mmHg 92%
    19:00 +18°C° 0.1 mm 1 mps 582 mmHg 93%
    20:00 +18°C° 0 mm 1 mps 583 mmHg 91%
    21:00 +18°C° 0 mm 1 mps 583 mmHg 90%
    22:00 +18°C° 0 mm 1 mps 583 mmHg 89%
    23:00 +18°C° 0.1 mm 1 mps 583 mmHg 88%

    24 July, Wednesday

    Time Temperature Precipitation Wind Pressure Humidity
    00:00 +18°C° 0.1 mm 1 mps 583 mmHg 88%
    01:00 +18°C° 0.1 mm 1 mps 583 mmHg 87%
    02:00 +18°C° 0 mm 1 mps 583 mmHg 87%
    03:00 +16°C° 0 mm 1 mps 583 mmHg 87%
    04:00 +16°C° 0 mm 1 mps 582 mmHg 87%
    05:00 +16°C° 0 mm 0 mps 583 mmHg 86%
    06:00 +16°C° 0 mm 0 mps 583 mmHg 85%
    07:00 +16°C° 0 mm 0 mps 583 mmHg 84%
    08:00 +17°C° 0 mm 0 mps 584 mmHg 79%
    09:00 +21°C° 0 mm 1 mps 585 mmHg 74%
    10:00 +22°C° 0 mm 1 mps 586 mmHg 70%
    11:00 +22°C° 0.2 mm 1 mps 586 mmHg 69%
    12:00 +23°C° 0.2 mm 2 mps 586 mmHg 68%
    13:00 +23°C° 0.2 mm 2 mps 585 mmHg 67%
    14:00 +23°C° 0.3 mm 2 mps 585 mmHg 68%
    15:00 +22°C° 0.3 mm 3 mps 585 mmHg 69%
    16:00 +22°C° 0.3 mm 3 mps 584 mmHg 69%
    17:00 +21°C° 0.4 mm 2 mps 584 mmHg 75%
    18:00 +20°C° 0.4 mm 2 mps 584 mmHg 81%
    19:00 +19°C° 0.4 mm 1 mps 584 mmHg 87%
    20:00 +19°C° 0.3 mm 1 mps 584 mmHg 87%
    21:00 +19°C° 0.3 mm 1 mps 585 mmHg 87%
    22:00 +18°C° 0.3 mm 1 mps 585 mmHg 88%
    23:00 +18°C° 1.5 mm 1 mps 585 mmHg 90%

    25 July, Thursday

    Time Temperature Precipitation Wind Pressure Humidity
    00:00 +16°C° 1.5 mm 1 mps 584 mmHg 92%
    01:00 +15°C° 1.5 mm 1 mps 583 mmHg 94%
    02:00 +15°C° 0.9 mm 1 mps 583 mmHg 94%
    03:00 +15°C° 0.9 mm 1 mps 584 mmHg 93%
    04:00 +15°C° 0.9 mm 1 mps 584 mmHg 93%
    05:00 +15°C° 0.1 mm 1 mps 584 mmHg 91%
    06:00 +16°C° 0.1 mm 1 mps 585 mmHg 89%
    07:00 +18°C° 0.1 mm 1 mps 585 mmHg 87%
    08:00 +19°C° 0 mm 1 mps 586 mmHg 81%
    09:00 +21°C° 0 mm 1 mps 586 mmHg 75%
    10:00 +20°C° 0 mm 0 mps 587 mmHg 69%
    11:00 +23°C° 0.1 mm 1 mps 587 mmHg 68%
    12:00 +24°C° 0.1 mm 1 mps 587 mmHg 68%
    13:00 +24°C° 0.1 mm 1 mps 586 mmHg 67%
    14:00 +24°C° 1 mm 1 mps 586 mmHg 68%
    15:00 +24°C° 1 mm 1 mps 585 mmHg 70%
    16:00 +24°C° 1 mm 1 mps 585 mmHg 71%
    17:00 +23°C° 1.1 mm 1 mps 584 mmHg 76%
    18:00 +22°C° 1.1 mm 1 mps 584 mmHg 80%
    19:00 +18°C° 1.1 mm 0 mps 584 mmHg 85%
    20:00 +18°C° 0.9 mm 0 mps 584 mmHg 86%
    21:00 +18°C° 0.9 mm 0 mps 585 mmHg 86%
    22:00 +17°C° 0.9 mm 0 mps 585 mmHg 87%
    23:00 +17°C° 0.6 mm 0 mps 585 mmHg 88%
    Show more